Simultaneous Nadir Overpasses (SNOs) Predictions

Prediction of SNOs between FY3D and METOP-C Satellite Orbit:

Table of predicted SNOs for the next 14.0 days since TLE Epoch: 5/7/2022
Index Date (FY3D) Time (FY3D) Lat,Lon (FY3D) SZA (FY3D ) Date (METOP-C) Time (METOP-C) Lat,Lon (METOP-C) SZA (METOP-C ) Distance(km) Time Diff (sec)
1 05/18/2022 07:09:49 -74.61,-114.45 124.94 05/18/2022 07:10:55 -74.56,-111.55 125.07 85.93 66
2 05/18/2022 08:00:30 74.39, 53.46 54.81 05/18/2022 08:01:39 74.37, 55.28 54.74 54.49 69
3 05/18/2022 08:51:12 -74.21,-138.76 125.39 05/18/2022 08:52:24 -74.20,-137.83 125.44 28.11 72
4 05/18/2022 09:41:54 74.03, 29.01 54.41 05/18/2022 09:43:08 74.00, 29.02 54.37 3.39 74
5 05/18/2022 10:32:39 -73.99,-163.60 125.64 05/18/2022 10:33:49 -74.02,-163.59 125.61 3.36 70
6 05/18/2022 11:23:25 74.01, 3.67 54.38 05/18/2022 11:24:29 74.02, 3.74 54.38 2.51 64
7 05/18/2022 12:14:11 -74.02, 170.95 125.62 05/18/2022 12:15:11 -74.00, 171.01 125.65 3.25 60
8 05/18/2022 13:04:56 73.99, -21.66 54.34 05/18/2022 13:05:51 74.00, -21.66 54.34 0.96 55
9 05/18/2022 13:55:42 -74.01, 145.61 125.66 05/18/2022 13:56:33 -73.98, 145.61 125.69 3.17 51
10 05/18/2022 14:46:27 73.97, -46.99 54.31 05/18/2022 14:47:13 73.98, -47.06 54.31 1.99 46
11 05/18/2022 15:37:13 -73.99, 120.28 125.69 05/18/2022 15:37:54 -74.00, 120.34 125.68 2.47 41
12 05/18/2022 16:27:58 74.00, -72.45 54.32 05/18/2022 16:28:33 74.00, -72.33 54.31 3.54 35
13 05/18/2022 17:18:43 -73.97, 94.95 125.73 05/18/2022 17:19:15 -73.98, 94.94 125.72 1.24 32
14 05/18/2022 18:09:29 73.99, -97.78 54.29 05/18/2022 18:09:55 73.98, -97.73 54.28 1.74 26
15 05/18/2022 19:00:14 -73.95, 69.61 125.76 05/18/2022 19:00:37 -73.96, 69.54 125.76 2.24 23
16 05/18/2022 19:51:00 73.97,-123.12 54.25 05/18/2022 19:51:17 73.95,-123.13 54.24 1.37 17
17 05/18/2022 20:41:46 -73.98, 44.16 125.74 05/18/2022 20:41:58 -73.98, 44.27 125.75 3.35 12
18 05/18/2022 21:32:31 73.95,-148.45 54.22 05/18/2022 21:32:39 73.93,-148.53 54.20 3.01 8
19 05/18/2022 22:23:17 -73.96, 18.82 125.78 05/18/2022 22:23:20 -73.96, 18.87 125.78 1.47 3
20 05/18/2022 23:14:02 73.93,-173.78 54.18 05/18/2022 23:14:00 73.96,-173.80 54.21 3.08 2
21 05/19/2022 00:04:48 -73.94, -6.51 125.81 05/19/2022 00:04:42 -73.94, -6.53 125.82 1.05 6
22 05/19/2022 00:55:34 73.96, 160.76 54.20 05/19/2022 00:55:22 73.93, 160.80 54.17 3.27 12
23 05/19/2022 01:46:19 -73.93, -31.84 125.85 05/19/2022 01:46:04 -73.91, -31.92 125.86 2.84 15
24 05/19/2022 02:37:05 73.94, 135.43 54.17 05/19/2022 02:36:43 73.96, 135.52 54.18 3.50 22
25 05/19/2022 03:27:50 -73.91, -57.18 125.88 05/19/2022 03:27:25 -73.94, -57.20 125.85 3.53 25
26 05/19/2022 04:18:36 73.92, 110.09 54.13 05/19/2022 04:18:05 73.93, 110.12 54.14 1.64 31
27 05/19/2022 05:09:22 -73.94, -82.63 125.87 05/19/2022 05:08:47 -73.91, -82.60 125.89 2.78 35
28 05/19/2022 06:00:07 73.90, 84.76 54.10 05/19/2022 05:59:27 73.91, 84.73 54.11 1.18 40
29 05/19/2022 06:50:53 -73.92,-107.97 125.90 05/19/2022 06:50:09 -73.89,-107.99 125.92 3.19 44
30 05/19/2022 07:41:38 73.89, 59.42 54.06 05/19/2022 07:40:49 73.89, 59.33 54.07 2.89 49
31 05/19/2022 08:32:24 -73.90,-133.30 125.94 05/19/2022 08:31:30 -73.92,-133.27 125.91 2.09 54
32 05/19/2022 09:23:10 73.92, 33.97 54.08 05/19/2022 09:22:10 73.91, 34.05 54.08 2.62 60
33 05/19/2022 10:13:55 -73.88,-158.64 125.97 05/19/2022 10:12:52 -73.89,-158.67 125.95 1.60 63
34 05/19/2022 11:04:41 73.90, 8.63 54.04 05/19/2022 11:03:32 73.89, 8.65 54.04 1.21 69
35 05/19/2022 11:55:26 -73.86, 176.03 126.00 05/19/2022 11:54:14 -73.87, 175.94 125.99 2.94 72
36 05/19/2022 12:46:09 73.73, -16.34 53.85 05/19/2022 12:44:56 73.77, -16.98 53.91 20.19 73
37 05/19/2022 13:36:52 -73.60, 151.28 126.30 05/19/2022 13:35:41 -73.60, 149.96 126.26 41.64 71
38 05/19/2022 14:27:33 73.36, -40.87 53.45 05/19/2022 14:26:25 73.39, -43.18 53.55 73.72 68
39 05/19/2022 15:18:16 -73.23, 126.74 126.70 05/19/2022 15:17:10 -73.22, 123.78 126.62 95.21 66



Historial Predications of SNOs between FY3D and METOP-C
